Location: St. Louis
(38.6270°N, 90.1994°W)
Time: 11:51:17
(UTC-06:00)

A-11 Canister half - Pass Details

Date: 06 December 2021
Orbit: 1524 x 1684 km, 47.3° (Epoch: 25 January)

Event Time Altitude Azimuth Distance (km) Brightness Sun altitude
Rises 00:12:02 0° 225° (SW) 4,901 - -73.3°
Reaches altitude 10° 00:15:11 10° 223° (SW) 3,926 - -73.1°
Maximum altitude 00:25:14 71° 142° (SE) 1,759 - -72.4°
Drops below altitude 10° 00:35:17 10° 61° (ENE) 3,930 - -71.4°
Exits shadow 00:37:32 - 60° (ENE) 4,624 11.7 -71.2°
Sets 00:38:26 0° 60° (ENE) 4,906 11.9 -71.1°
